Location: Clanezzo
(45.7500°N, 9.6000°E)
Time: 00:49:46
(UTC+00:00)

ALOS 2 - Pass Details

Date: 12 May 2021
Orbit: 630 x 632 km, 97.9° (Epoch: 23 June)

Event Time Altitude Azimuth Distance (km) Brightness Sun altitude
Exits shadow 23:02:19 61° 296° (WNW) 724 2.9 -25.8°
Drops below altitude 10° 23:06:14 10° 341° (NNW) 2,025 6.1 -25.8°
Sets 23:08:28 0° 345° (NNW) 2,938 7.3 -25.8°
